Location: Colonia Mina de C?rbuni
(46.1667°N, 22.7167°E)
Time: 14:55:50
(UTC+00:00)

Vanguard 1 Rocket - Pass Details

Date: 17 April 2024
Orbit: 650 x 4220 km, 34.3° (Epoch: 22 May)

Event Time Altitude Azimuth Distance (km) Brightness Sun altitude
Rises 17:44:29 0° 226° (SW) 3,228 10.6 -4.9°
Reaches altitude 10° 17:46:51 10° 213° (SSW) 2,508 9.8 -5.3°
Maximum altitude 17:51:44 27° 155° (SSE) 2,041 8.8 -6.1°
Drops below altitude 10° 17:59:20 10° 103° (ESE) 4,015 10.0 -7.3°
Enters shadow 18:00:48 - 99° (E) 4,499 10.3 -7.5°
